Time,TemperatureF,DewpointF,PressureIn,WindDirection,WindDirectionDegrees,WindSpeedMPH,WindSpeedGustMPH,Humidity,HourlyPrecipIn,Conditions,Clouds,dailyrainin,SoftwareType,DateUTC
2013-06-11 00:00:00,47.0,-14.0,-100.00,West,260,14.0,18.0,7,-99.99,,,-99.99,,2013-06-11 07:00:00,
2013-06-11 00:52:00,47.0,-14.0,-100.00,West,260,14.0,18.0,7,-99.99,,,-99.99,,2013-06-11 07:52:00,
2013-06-11 01:00:00,46.0,-15.0,-100.00,WSW,251,13.0,20.0,7,-99.99,,,-99.99,,2013-06-11 08:00:00,
2013-06-11 01:52:00,46.0,-15.0,-100.00,WSW,251,13.0,20.0,7,-99.99,,,-99.99,,2013-06-11 08:52:00,
2013-06-11 02:00:00,45.0,-13.0,-100.00,WNW,296,7.0,20.0,8,-99.99,,,-99.99,,2013-06-11 09:00:00,
2013-06-11 02:53:00,45.0,-13.0,-100.00,WNW,296,7.0,20.0,8,-99.99,,,-99.99,,2013-06-11 09:53:00,
2013-06-11 03:00:00,45.0,-5.0,-100.00,North,1,6.0,16.0,12,-99.99,,,-99.99,,2013-06-11 10:00:00,
2013-06-11 03:52:00,45.0,-5.0,-100.00,North,1,6.0,16.0,12,-99.99,,,-99.99,,2013-06-11 10:52:00,
2013-06-11 04:00:00,35.0,18.0,-100.00,North,350,3.0,12.0,49,-99.99,,,-99.99,,2013-06-11 11:00:00,
2013-06-11 04:52:00,35.0,18.0,-100.00,North,350,3.0,12.0,49,-99.99,,,-99.99,,2013-06-11 11:52:00,
2013-06-11 05:00:00,36.0,11.0,-100.00,North,0,0.0,5.0,35,-99.99,,,-99.99,,2013-06-11 12:00:00,
2013-06-11 05:52:00,36.0,11.0,-100.00,North,0,0.0,5.0,35,-99.99,,,-99.99,,2013-06-11 12:52:00,
2013-06-11 06:00:00,36.0,19.0,-100.00,North,5,1.0,5.0,49,-99.99,,,-99.99,,2013-06-11 13:00:00,
2013-06-11 06:52:00,36.0,19.0,-100.00,North,5,1.0,5.0,49,-99.99,,,-99.99,,2013-06-11 13:52:00,
2013-06-11 11:00:00,38.0,26.0,-100.00,ENE,65,5.0,12.0,62,-99.99,,,-99.99,,2013-06-11 18:00:00,
2013-06-11 11:52:00,38.0,26.0,-100.00,ENE,65,5.0,12.0,62,-99.99,,,-99.99,,2013-06-11 18:52:00,
2013-06-11 14:00:00,33.0,19.0,-100.00,WSW,253,15.0,28.0,56,-99.99,,,-99.99,,2013-06-11 21:00:00,
2013-06-11 14:53:00,33.0,19.0,-100.00,WSW,253,15.0,28.0,56,-99.99,,,-99.99,,2013-06-11 21:53:00,
2013-06-11 16:00:00,32.0,27.0,-100.00,West,269,20.0,29.0,83,-99.99,,,-99.99,,2013-06-11 23:00:00,
2013-06-11 16:52:00,32.0,27.0,-100.00,West,269,20.0,29.0,83,-99.99,,,-99.99,,2013-06-11 23:52:00,
2013-06-11 17:00:00,33.0,25.0,-100.00,West,271,18.0,27.0,72,-99.99,,,-99.99,,2013-06-12 00:00:00,
2013-06-11 17:52:00,33.0,25.0,-100.00,West,271,18.0,27.0,72,-99.99,,,-99.99,,2013-06-12 00:52:00,
2013-06-11 18:00:00,32.0,28.0,-100.00,West,270,15.0,24.0,86,-99.99,,,-99.99,,2013-06-12 01:00:00,
2013-06-11 18:52:00,32.0,28.0,-100.00,West,270,15.0,24.0,86,-99.99,,,-99.99,,2013-06-12 01:52:00,
2013-06-11 19:00:00,32.0,27.0,-100.00,WSW,254,16.0,25.0,81,-99.99,,,-99.99,,2013-06-12 02:00:00,
2013-06-11 19:52:00,32.0,27.0,-100.00,WSW,254,16.0,25.0,81,-99.99,,,-99.99,,2013-06-12 02:52:00,
2013-06-11 21:00:00,35.0,27.0,-100.00,NNW,340,16.0,24.0,73,-99.99,,,-99.99,,2013-06-12 04:00:00,
2013-06-11 21:52:00,35.0,27.0,-100.00,NNW,340,16.0,24.0,73,-99.99,,,-99.99,,2013-06-12 04:52:00,
2013-06-11 22:00:00,31.0,27.0,-100.00,WSW,252,12.0,27.0,85,-99.99,,,-99.99,,2013-06-12 05:00:00,
2013-06-11 22:52:00,31.0,27.0,-100.00,WSW,252,12.0,27.0,85,-99.99,,,-99.99,,2013-06-12 05:52:00,
2013-06-11 23:00:00,31.0,26.0,-100.00,North,349,1.0,8.0,81,-99.99,,,-99.99,,2013-06-12 06:00:00,
2013-06-11 23:52:00,31.0,26.0,-100.00,North,349,1.0,8.0,81,-99.99,,,-99.99,,2013-06-12 06:52:00,